Find Starlink 5659

NORAD ID: 55351 Int'l Des: 2023-013 Owner: SPXS Country: US Constellation: starlink operational
LEOCIRCULAR

实时位置

正在加载3D地球...

关于 Starlink 5659

正在加载描述...

即将过境

Passes for default location (London). Set your location on the main map for personalized predictions.

高度历史

Loading altitude history...

两行轨道根数

1 55351U 23013W 26123.66557558 -.00000948 00000-0 -24934-4 0 9998
2 55351 43.0024 352.7191 0001134 259.0380 101.0344 15.27586814180085
Epoch: May 3, 2026 • Age: 18 hours

当前状态

高度 485.0 km
速度 7.63 km/s
星下点 34.17°N, 30.55°E
发射日期 Jan 26, 2023
运行时间 3.2 years
类型 internet

技术详情

分类 Payload
质量 305.00 kg
干质量 290.00 kg
总质量 305.00 kg
长度 0.20 m
直径 2.80 m
跨度 9.00 m
形状 Box + pan
制造商 SPXS
平台类型 Starlink
阶段状态 In Orbit
所有者/国家 SPXS/US

Most Searched